[[{"header":{"parameterUnit":"m.s-1","parameterCategory":1,"la1":30.2991,"la2":30.254,"lo1":-89.0895,"lo2":-89.0444,"dy":0.0017,"dx":0.0017,"nx":28,"ny":28,"refTime":"2025-05-01T03:00:00:Z","depth":0,"parameterNumber":2,"parameterNumberName":"U-component_of_WINDS"},"data":[0,0,0,0,0,0,0,0,0,0,0,0,0,0,0,0,0,0,0,0,0,0,0,0,0,0,0,0,0,0,0,0,0,0,0,0,0,0,0,0,0,0,0,0,0,0,0,0,0,0,0,0,0,0,0,0,0,0,0.6398,0.6397,0,0.6297,0.6296,0.6295,0.6196,0.6195,0.6194,0.6192,0.6081,0.608,0.6078,0,0,0,0,0,0,0,0,0,0,0,0,0,0.65,0.6499,0.6398,0.6397,0.6396,0.6298,0.6296,0.6295,0.6196,0.6195,0.6193,0.6192,0.6082,0.608,0.6078,0,0,0,0,0,0,0,0,0,0,0,0,0,0.6433,0.6498,0.6398,0.6335,0.6328,0.6298,0.6296,0.6294,0.6197,0.6195,0.6193,0.6191,0.6083,0.608,0.6077,0.6099,0,0,0.6069,0.6068,0,0,0,0,0,0,0,0,0.6437,0.6429,0.6346,0.6339,0.6332,0.6258,0.6291,0.6229,0.6197,0.6246,0.6192,0.619,0.6141,0.6133,0.6118,0.6094,0.6089,0.6069,0.6067,0.6066,0.6066,0,0,0,0,0,0,0,0.6442,0.6433,0.6358,0.6344,0.6336,0.631,0.6298,0.6279,0.6205,0.6242,0.6235,0.6224,0.6137,0.6121,0.6115,0.6087,0.6069,0.6067,0.6065,0.6064,0.6077,0.6079,0,0,0,0,0,0,0.6457,0.6438,0.6361,0.6355,0.6381,0.631,0.6296,0.6283,0.6205,0.6192,0.6226,0.622,0.6127,0.6118,0.6111,0.6132,0.6066,0.6064,0.6062,0.6075,0.6077,0.6079,0,0,0,0,0,0,0.646,0.6451,0.6365,0.6394,0.6381,0.631,0.6296,0.6282,0.6267,0.6194,0.6179,0.6224,0.6125,0.6115,0.6104,0.6127,0.6063,0.606,0.6073,0.6076,0.6078,0.6175,0,0,0,0,0,0,0.6463,0.6453,0.6461,0.6395,0.638,0.6362,0.6297,0.6282,0.6263,0.6254,0.6188,0.6175,0.6123,0.6108,0.6101,0.6122,0.6058,0.607,0.6074,0.6078,0.6169,0.6181,0.6191,0,0,0,0,0,0.6467,0.649,0.6462,0.6454,0.639,0.6364,0.6355,0.6296,0.6266,0.6273,0.6226,0.6177,0.6126,0.6108,0.6099,0.612,0.6069,0.6073,0.6077,0.6165,0.6179,0.619,0,0,0,0,0,0,0.6558,0.6481,0.6448,0.6452,0.6416,0.6347,0.6354,0.6313,0.6282,0.6275,0.6201,0.6187,0.6185,0.615,0.6132,0.6137,0.609,0.6093,0.616,0.6172,0.6183,0.6191,0.6056,0,0,0,0,0,0.6579,0.6566,0.6498,0.6507,0.6491,0.6427,0.6413,0.6371,0.6329,0.6313,0.6265,0.6224,0.6199,0.6184,0.6156,0.6164,0.6148,0.6174,0.6185,0.6194,0.6197,0.62,0.6211,0.6094,0.6094,0.6094,0,0,0.6621,0.6577,0.6573,0.6525,0.6492,0.6478,0.6414,0.6402,0.6391,0.6309,0.6298,0.6262,0.6211,0.6211,0.6208,0.6182,0.6226,0.6199,0.6207,0.6205,0.6206,0.6217,0.6227,0.6097,0.6096,0.6096,0,0,0.6691,0.6657,0.6662,0.6631,0.6583,0.654,0.6542,0.648,0.6454,0.6442,0.6381,0.6366,0.6323,0.6291,0.6269,0.633,0.6283,0.6322,0.6378,0.6382,0.6391,0.6399,0.6422,0.6431,0.6326,0.6326,0.6326,0,0.6749,0.6729,0.6669,0.6662,0.6643,0.6572,0.6576,0.6548,0.6492,0.648,0.6453,0.6401,0.6361,0.6353,0.6369,0.6352,0.6351,0.633,0.6395,0.6402,0.6408,0.6429,0.6438,0.6331,0.6331,0.633,0.633,0,0.6803,0.679,0.6799,0.6751,0.6732,0.6731,0.667,0.6658,0.6619,0.6579,0.6567,0.6519,0.6481,0.6476,0.6435,0.6462,0.6448,0.6409,0.636,0.6426,0.6444,0.6452,0.6339,0.6337,0.6335,0.6334,0,0,0.6926,0.6847,0.6852,0.683,0.6773,0.676,0.6756,0.6722,0.6714,0.6678,0.6672,0.664,0.6604,0.6579,0.6535,0.6539,0.6592,0.6499,0.6497,0.6519,0.6619,0.665,0.666,0.6561,0.6562,0.6563,0.6624,0,0.6986,0.6976,0.6924,0.6928,0.6916,0.685,0.6845,0.6809,0.6772,0.6755,0.6712,0.6691,0.6646,0.663,0.6631,0.6586,0.6611,0.658,0.6554,0.6554,0.657,0.6669,0.67,0.676,0.663,0.6632,0.6632,0,0.7055,0.7028,0.7033,0.6978,0.6971,0.6969,0.6935,0.6919,0.6877,0.685,0.6824,0.6776,0.6766,0.6721,0.6707,0.6687,0.6673,0.665,0.665,0.6646,0.6597,0.6668,0.6777,0.6786,0.6643,0.6642,0.6641,0,0.7146,0.711,0.7108,0.7092,0.7028,0.7028,0.7001,0.6957,0.6941,0.6911,0.6899,0.6867,0.685,0.6826,0.677,0.6742,0.6762,0.6712,0.6739,0.674,0.6745,0.6746,0.6855,0.6736,0.6736,0.6736,0.6736,0,0.7219,0.7225,0.7149,0.7148,0.7152,0.7091,0.7097,0.7063,0.7025,0.7016,0.6956,0.6948,0.6874,0.6858,0.6814,0.6809,0.6801,0.6778,0.6767,0.6784,0.6787,0.6774,0.6768,0.6738,0.6737,0.6737,0.6737,0,0.732,0.727,0.7264,0.7205,0.7191,0.7197,0.7146,0.7142,0.7102,0.7091,0.7085,0.7022,0.7,0.6943,0.6904,0.6875,0.6882,0.686,0.6898,0.689,0.6921,0.6919,0.7025,0.7036,0.6911,0.6912,0.6913,0,0.737,0.7373,0.7316,0.7308,0.7284,0.7269,0.7254,0.7194,0.718,0.7135,0.7137,0.7111,0.7086,0.7054,0.7004,0.6974,0.6951,0.6991,0.6946,0.6965,0.6953,0.6954,0.6954,0.7,0.7002,0.7003,0.7004,0,0.7465,0.744,0.7421,0.7395,0.7379,0.7354,0.7326,0.7322,0.7255,0.7242,0.7221,0.7202,0.7166,0.714,0.7104,0.7074,0.7028,0.7019,0.7024,0.7042,0.7064,0.7054,0.6925,0.7017,0.7015,0.7014,0.7014,0.7013,0.7541,0.7542,0.7503,0.7485,0.7458,0.7434,0.7429,0.7391,0.7372,0.734,0.7306,0.7288,0.7247,0.7195,0.7169,0.7153,0.7129,0.7135,0.7137,0.714,0.7148,0.7067,0.7146,0.7146,0.7145,0.7145,0.7144,0,0.7633,0.7606,0.759,0.7554,0.754,0.7502,0.7469,0.746,0.7446,0.7413,0.7392,0.7369,0.7345,0.7294,0.7266,0.7263,0.7242,0.7258,0.7257,0.7252,0.7171,0.717,0.7276,0.7276,0.7276,0.7276,0.7276,0.7276,0.7679,0.7679,0.7651,0.7637,0.7609,0.7594,0.7579,0.7557,0.7531,0.7508,0.7489,0.7458,0.7418,0.7387,0.7363,0.7349,0.7341,0.7365,0.7344,0.7269,0.7257,0.7245,0.7244,0.7363,0.7364,0.7425,0.7426,0.7426]},{"header":{"parameterUnit":"m.s-1","parameterCategory":1,"la1":30.2991,"la2":30.254,"lo1":-89.0895,"lo2":-89.0444,"dy":0.0017,"dx":0.0017,"nx":28,"ny":28,"refTime":"2025-05-01T03:00:00:Z","depth":0,"parameterNumber":3,"parameterNumberName":"V-component_of_WINDS"},"data":[0,0,0,0,0,0,0,0,0,0,0,0,0,0,0,0,0,0,0,0,0,0,0,0,0,0,0,0,0,0,0,0,0,0,0,0,0,0,0,0,0,0,0,0,0,0,0,0,0,0,0,0,0,0,0,0,0,0,2.9649,2.965,0,2.9698,2.9698,2.9699,2.967,2.9669,2.9667,2.9666,2.972,2.9723,2.9726,0,0,0,0,0,0,0,0,0,0,0,0,0,2.954,2.9542,2.9649,2.965,2.965,2.9697,2.9698,2.9699,2.967,2.9669,2.9667,2.9665,2.9719,2.9722,2.9726,0,0,0,0,0,0,0,0,0,0,0,0,0,2.9588,2.9543,2.9649,2.9642,2.9641,2.9697,2.9698,2.9699,2.9671,2.9668,2.9666,2.9664,2.9718,2.9722,2.9726,2.9793,0,0,2.9739,2.9741,0,0,0,0,0,0,0,0,2.9585,2.9592,2.9642,2.9642,2.9642,2.9675,2.968,2.9731,2.9671,2.966,2.9666,2.9663,2.9707,2.9712,2.9726,2.9796,2.9798,2.9739,2.9742,2.9743,2.9745,0,0,0,0,0,0,0,2.9582,2.959,2.9668,2.9643,2.9643,2.9639,2.9643,2.9689,2.9695,2.9661,2.9659,2.9664,2.9707,2.9722,2.9727,2.9799,2.9739,2.9743,2.9745,2.9747,2.9934,2.9936,0,0,0,0,0,0,2.9579,2.9587,2.9667,2.967,2.9608,2.9642,2.9647,2.9667,2.9694,2.9696,2.9666,2.9663,2.9716,2.9722,2.9729,2.9813,2.9743,2.9747,2.975,2.9931,2.9934,2.9937,0,0,0,0,0,0,2.9576,2.9586,2.9665,2.9628,2.9638,2.9646,2.9669,2.9669,2.9684,2.9698,2.97,2.968,2.9715,2.9723,2.9779,2.9814,2.9749,2.9753,2.9928,2.9932,2.9935,2.9979,0,0,0,0,0,0,2.9573,2.9585,2.9608,2.9629,2.964,2.9711,2.9671,2.9672,2.9691,2.9687,2.9712,2.9714,2.9714,2.9773,2.9783,2.9818,2.9756,2.9925,2.993,2.9934,2.9974,2.9983,2.9991,0,0,0,0,0,2.9569,2.9618,2.961,2.9619,2.9669,2.9713,2.972,2.9717,2.9693,2.9719,2.9729,2.9713,2.9809,2.9779,2.979,2.9827,2.9923,2.9929,2.9934,2.997,2.9982,2.9991,0,0,0,0,0,0,2.9602,2.9621,2.9611,2.9667,2.9689,2.9708,2.9739,2.9728,2.9758,2.9753,2.975,2.9757,2.9815,2.9827,2.9793,2.9897,2.9863,2.9871,2.9886,2.9897,2.9906,2.9902,2.976,0,0,0,0,0,2.9615,2.9648,2.9663,2.9712,2.9723,2.973,2.9749,2.9746,2.9768,2.9777,2.9791,2.9816,2.9852,2.9875,2.9909,2.9977,2.9984,3.0009,3.0017,3.0024,3.0031,3.0073,3.0085,2.9955,2.9955,2.9955,0,0,2.9644,2.9658,2.9679,2.9719,2.9735,2.9772,2.9737,2.9776,2.9804,2.9784,2.9837,2.9849,2.9877,2.994,2.9968,2.9952,3.007,3.0032,3.0037,3.004,3.008,3.0092,3.0103,2.9959,2.9958,2.9958,0,0,2.9714,2.9727,2.9771,2.9789,2.9814,2.9819,2.983,2.9852,2.9859,2.9913,2.99,2.9935,2.9996,3.0017,3.0036,3.0123,3.0111,3.0134,3.0179,3.0219,3.023,3.0239,3.0272,3.0284,3.0141,3.0141,3.0141,0,2.9747,2.9798,2.9795,2.9836,2.9856,2.984,2.9887,2.9905,2.994,2.9956,2.9937,3.0017,3.0034,3.0104,3.0126,3.0141,3.0156,3.013,3.0228,3.0237,3.0246,3.0278,3.029,3.0144,3.0144,3.0143,3.0143,0,2.9839,2.9876,2.9909,2.9943,2.9968,3.0011,3.0018,3.0043,3.004,3.0048,3.0107,3.0128,3.0168,3.0185,3.0181,3.0256,3.0246,3.0228,3.0193,3.0261,3.0291,3.0303,3.0148,3.0147,3.0146,3.0145,0,0,2.9927,2.9963,2.9975,2.9992,3.0022,3.0052,3.0098,3.0136,3.016,3.0187,3.0228,3.0283,3.0268,3.029,3.029,3.0325,3.0397,3.0304,3.0305,3.0322,3.0486,3.05,3.0513,3.039,3.0393,3.0394,3.0485,0,3.0,3.0077,3.0078,3.015,3.0187,3.0176,3.0216,3.0241,3.0252,3.0288,3.0301,3.0341,3.0316,3.033,3.0365,3.0381,3.043,3.0374,3.0431,3.0433,3.0424,3.0529,3.0542,3.0625,3.0496,3.0498,3.0499,0,3.0095,3.0125,3.0201,3.023,3.0245,3.0281,3.0319,3.0352,3.0383,3.0389,3.0416,3.0413,3.0464,3.0429,3.0503,3.0465,3.049,3.0502,3.0505,3.051,3.047,3.0538,3.0651,3.0665,3.0518,3.0516,3.0515,0,3.0154,3.0214,3.0268,3.0284,3.0318,3.0344,3.036,3.0388,3.0413,3.0449,3.0466,3.0507,3.0529,3.0563,3.0573,3.0546,3.0648,3.0613,3.0657,3.0657,3.0678,3.0676,3.0798,3.0693,3.0693,3.0693,3.0692,0,3.0235,3.0283,3.0295,3.0329,3.0383,3.0387,3.0442,3.0457,3.0483,3.0522,3.0516,3.0554,3.0564,3.0605,3.0614,3.0676,3.0686,3.0695,3.0697,3.0695,3.0694,3.071,3.0705,3.0696,3.0695,3.0695,3.0694,0,3.0309,3.0319,3.0378,3.0407,3.0416,3.0455,3.0482,3.0516,3.0528,3.0579,3.0591,3.0611,3.0659,3.0673,3.0731,3.0737,3.0811,3.0807,3.08,3.08,3.0844,3.0841,3.0981,3.1001,3.0882,3.0883,3.0884,0,3.036,3.0396,3.0431,3.0456,3.0473,3.0513,3.0539,3.0547,3.0575,3.0616,3.0646,3.0694,3.0732,3.0812,3.0834,3.088,3.0878,3.0924,3.0885,3.0884,3.0881,3.0879,3.0884,3.0931,3.0933,3.0934,3.0934,0,3.0451,3.0456,3.0491,3.0532,3.0563,3.0595,3.0626,3.0648,3.0661,3.0694,3.0743,3.0773,3.0834,3.0883,3.0931,3.0952,3.0947,3.0947,3.096,3.0959,3.0954,3.096,3.0821,3.0943,3.0942,3.0942,3.0941,3.0941,3.0516,3.0549,3.0579,3.0622,3.0646,3.0677,3.0712,3.0729,3.077,3.0819,3.0822,3.0877,3.0913,3.0977,3.1001,3.1047,3.1034,3.1052,3.1057,3.1061,3.1066,3.0948,3.1056,3.1056,3.1055,3.1055,3.1055,0,3.0608,3.0628,3.0667,3.0711,3.0746,3.0737,3.0773,3.0804,3.0851,3.0884,3.0923,3.0983,3.1032,3.106,3.1111,3.1143,3.1142,3.1156,3.1154,3.116,3.1074,3.1058,3.1156,3.1156,3.1156,3.1156,3.1156,3.1156,3.0659,3.0716,3.0726,3.0797,3.0818,3.087,3.0891,3.0922,3.0948,3.1015,3.1055,3.1073,3.1106,3.116,3.1207,3.1215,3.1234,3.125,3.1256,3.1175,3.1165,3.1155,3.114,3.1254,3.1254,3.1338,3.1339,3.134]}]]